BWA217 TBPB-TTPP

Flight info

Callsign BWA217
Flight time 0h 55m
Altitude 16000
Route BGI R515 LOGAN DCT TAB DCT NAPKO DCT LEXOR DCT TALUS
Aircraft AT76/M-MSDFGRSB1/S

Departure

Time 2026-05-07 00:24
Airport Grantley Adams International Airport (TBPB)

Arrival

Time 2026-05-07 01:19
Airport Piarco International Airport (TTPP)
Time Latitude Longitude Altitude Speed Heading
2026-05-06 23:54 13.07871 -59.48819 174 ft 0 kts 346°
2026-05-07 00:18 13.07873 -59.48814 174 ft 2 kts 62°
2026-05-07 00:19 13.07820 -59.48796 174 ft 15 kts 181°
2026-05-07 00:19 13.07717 -59.48866 174 ft 20 kts 241°
2026-05-07 00:19 13.07681 -59.48999 174 ft 18 kts 256°
2026-05-07 00:19 13.07652 -59.49119 174 ft 17 kts 255°
2026-05-07 00:20 13.07624 -59.49232 174 ft 16 kts 255°
2026-05-07 00:20 13.07598 -59.49337 174 ft 15 kts 256°
2026-05-07 00:20 13.07574 -59.49437 174 ft 14 kts 255°
2026-05-07 00:20 13.07546 -59.49555 174 ft 18 kts 255°
2026-05-07 00:21 13.07517 -59.49674 174 ft 17 kts 256°
2026-05-07 00:21 13.07488 -59.49786 174 ft 16 kts 255°
2026-05-07 00:21 13.07464 -59.49892 174 ft 15 kts 256°
2026-05-07 00:21 13.07439 -59.49995 174 ft 15 kts 256°
2026-05-07 00:22 13.07415 -59.50094 174 ft 14 kts 256°
2026-05-07 00:22 13.07388 -59.50189 174 ft 13 kts 231°
2026-05-07 00:22 13.07326 -59.50192 174 ft 8 kts 165°
2026-05-07 00:22 13.07270 -59.50177 175 ft 8 kts 165°
2026-05-07 00:23 13.07236 -59.50146 175 ft 6 kts 101°
2026-05-07 00:23 13.07257 -59.50052 176 ft 36 kts 75°
2026-05-07 00:23 13.07366 -59.49605 173 ft 92 kts 76°
2026-05-07 00:23 13.07554 -59.48815 229 ft 128 kts 76°
2026-05-07 00:24 13.07795 -59.47899 670 ft 133 kts 74°
2026-05-07 00:24 13.07973 -59.46973 1146 ft 134 kts 91°
2026-05-07 00:24 13.07675 -59.46050 1317 ft 150 kts 125°
2026-05-07 00:24 13.06726 -59.45432 1358 ft 175 kts 166°
2026-05-07 00:25 13.05500 -59.45574 1665 ft 183 kts 201°
2026-05-07 00:25 13.04441 -59.46322 1998 ft 186 kts 215°
2026-05-07 00:25 13.03515 -59.47275 2335 ft 191 kts 229°
2026-05-07 00:25 13.02702 -59.48353 2678 ft 192 kts 232°
2026-05-07 00:26 13.01902 -59.49443 3000 ft 194 kts 230°
2026-05-07 00:26 13.01010 -59.50485 3327 ft 194 kts 224°
2026-05-07 00:26 13.00055 -59.51470 3660 ft 195 kts 223°
2026-05-07 00:26 12.99079 -59.52444 3992 ft 196 kts 221°
2026-05-07 00:27 12.98132 -59.53440 4305 ft 197 kts 228°
2026-05-07 00:27 12.97238 -59.54507 4618 ft 197 kts 228°
2026-05-07 00:27 12.96344 -59.55579 4934 ft 197 kts 225°
2026-05-07 00:27 12.95256 -59.56428 5211 ft 197 kts 212°
2026-05-07 00:28 12.94125 -59.57231 5528 ft 198 kts 213°
2026-05-07 00:28 12.92989 -59.58039 5848 ft 198 kts 213°
2026-05-07 00:28 12.91856 -59.58846 6147 ft 199 kts 213°
2026-05-07 00:28 12.90733 -59.59647 6428 ft 200 kts 213°
2026-05-07 00:29 12.89589 -59.60463 6723 ft 200 kts 213°
2026-05-07 00:29 12.88446 -59.61279 7037 ft 201 kts 213°
2026-05-07 00:30 12.84989 -59.63744 7867 ft 203 kts 213°
2026-05-07 00:30 12.83829 -59.64571 8126 ft 203 kts 213°
2026-05-07 00:30 12.82707 -59.65461 8379 ft 205 kts 218°
2026-05-07 00:30 12.81626 -59.66413 8637 ft 206 kts 219°
2026-05-07 00:31 12.80543 -59.67379 8883 ft 206 kts 219°
2026-05-07 00:31 12.79473 -59.68333 9125 ft 207 kts 219°
2026-05-07 00:31 12.78382 -59.69299 9352 ft 208 kts 219°
2026-05-07 00:31 12.77285 -59.70268 9574 ft 208 kts 219°
2026-05-07 00:32 12.76186 -59.71238 9798 ft 209 kts 219°
2026-05-07 00:32 12.75084 -59.72217 10027 ft 210 kts 219°
2026-05-07 00:32 12.73976 -59.73197 10254 ft 211 kts 219°
2026-05-07 00:32 12.72862 -59.74183 10477 ft 212 kts 219°
2026-05-07 00:33 12.71745 -59.75172 10697 ft 212 kts 219°
2026-05-07 00:33 12.70622 -59.76162 10912 ft 213 kts 219°
2026-05-07 00:33 12.69496 -59.77159 11130 ft 214 kts 219°
2026-05-07 00:33 12.68367 -59.78157 11327 ft 215 kts 219°
2026-05-07 00:34 12.67234 -59.79159 11538 ft 215 kts 219°
2026-05-07 00:34 12.66095 -59.80166 11738 ft 216 kts 220°
2026-05-07 00:34 12.64970 -59.81161 11942 ft 217 kts 220°
2026-05-07 00:34 12.63827 -59.82172 12152 ft 218 kts 220°
2026-05-07 00:35 12.62675 -59.83190 12360 ft 218 kts 220°
2026-05-07 00:35 12.61527 -59.84205 12572 ft 218 kts 220°
2026-05-07 00:35 12.60378 -59.85222 12759 ft 219 kts 220°
2026-05-07 00:35 12.59225 -59.86243 12956 ft 219 kts 220°
2026-05-07 00:36 12.58069 -59.87263 13149 ft 219 kts 220°
2026-05-07 00:36 12.56913 -59.88282 13333 ft 220 kts 220°
2026-05-07 00:36 12.55752 -59.89308 13508 ft 220 kts 220°
2026-05-07 00:36 12.54592 -59.90332 13679 ft 221 kts 220°
2026-05-07 00:37 12.53428 -59.91359 13855 ft 221 kts 220°
2026-05-07 00:37 12.52265 -59.92388 14042 ft 221 kts 220°
2026-05-07 00:37 12.51094 -59.93419 14222 ft 222 kts 220°
2026-05-07 00:37 12.49926 -59.94451 14397 ft 222 kts 220°
2026-05-07 00:38 12.48754 -59.95486 14566 ft 223 kts 220°
2026-05-07 00:38 12.47579 -59.96524 14733 ft 223 kts 220°
2026-05-07 00:38 12.46402 -59.97562 14885 ft 224 kts 220°
2026-05-07 00:38 12.45237 -59.98590 15053 ft 224 kts 220°
2026-05-07 00:39 12.44059 -59.99629 15205 ft 224 kts 220°
2026-05-07 00:39 12.43264 -60.00331 15302 ft 224 kts 220°
2026-05-07 00:39 12.41693 -60.01715 15490 ft 225 kts 220°
2026-05-07 00:39 12.40505 -60.02761 15637 ft 225 kts 220°
2026-05-07 00:40 12.39321 -60.03807 15778 ft 225 kts 220°
2026-05-07 00:40 12.38519 -60.04513 15883 ft 224 kts 220°
2026-05-07 00:40 12.37332 -60.05559 15987 ft 227 kts 220°
2026-05-07 00:40 12.36121 -60.06629 16033 ft 233 kts 220°
2026-05-07 00:41 12.34893 -60.07711 16053 ft 239 kts 220°
2026-05-07 00:41 12.33606 -60.08847 16059 ft 244 kts 220°
2026-05-07 00:41 12.32327 -60.09974 16062 ft 248 kts 220°
2026-05-07 00:41 12.31006 -60.11136 16063 ft 252 kts 220°
2026-05-07 00:42 12.29670 -60.12311 16063 ft 255 kts 220°
2026-05-07 00:42 12.28320 -60.13499 16063 ft 257 kts 220°
2026-05-07 00:42 12.26954 -60.14701 16063 ft 259 kts 220°
2026-05-07 00:42 12.25587 -60.15904 16063 ft 261 kts 220°
2026-05-07 00:43 12.24208 -60.17118 16063 ft 262 kts 220°
2026-05-07 00:43 12.22825 -60.18338 16063 ft 263 kts 220°
2026-05-07 00:43 12.21437 -60.19561 16063 ft 264 kts 220°
2026-05-07 00:43 12.20039 -60.20790 16063 ft 264 kts 220°
2026-05-07 00:44 12.18643 -60.22016 16063 ft 265 kts 220°
2026-05-07 00:44 12.17248 -60.23244 16063 ft 265 kts 220°
2026-05-07 00:44 12.15851 -60.24474 16063 ft 265 kts 220°
2026-05-07 00:44 12.14449 -60.25708 16063 ft 266 kts 220°
2026-05-07 00:45 12.13043 -60.26942 16063 ft 266 kts 220°
2026-05-07 00:45 12.11657 -60.28160 16063 ft 266 kts 220°
2026-05-07 00:45 12.10254 -60.29395 16063 ft 266 kts 220°
2026-05-07 00:45 12.08852 -60.30629 16063 ft 266 kts 220°
2026-05-07 00:46 12.07448 -60.31860 16063 ft 266 kts 220°
2026-05-07 00:46 12.06043 -60.33094 16064 ft 266 kts 220°
2026-05-07 00:46 12.04637 -60.34329 16064 ft 266 kts 220°
2026-05-07 00:46 12.03230 -60.35563 16063 ft 266 kts 220°
2026-05-07 00:47 12.01823 -60.36800 16064 ft 266 kts 220°
2026-05-07 00:47 12.00419 -60.38035 16064 ft 266 kts 220°
2026-05-07 00:47 11.99015 -60.39270 16063 ft 266 kts 220°
2026-05-07 00:47 11.97622 -60.40490 16060 ft 266 kts 220°
2026-05-07 00:48 11.96217 -60.41724 16057 ft 267 kts 220°
2026-05-07 00:48 11.94804 -60.42964 16055 ft 267 kts 220°
2026-05-07 00:48 11.93397 -60.44198 16055 ft 267 kts 220°
2026-05-07 00:48 11.91989 -60.45433 16056 ft 266 kts 220°
2026-05-07 00:49 11.90585 -60.46668 16054 ft 266 kts 220°
2026-05-07 00:49 11.89178 -60.47902 16054 ft 266 kts 220°
2026-05-07 00:49 11.87770 -60.49133 16054 ft 266 kts 220°
2026-05-07 00:49 11.86386 -60.50349 16054 ft 266 kts 220°
2026-05-07 00:50 11.84981 -60.51581 16054 ft 266 kts 220°
2026-05-07 00:50 11.83574 -60.52813 16054 ft 266 kts 220°
2026-05-07 00:50 11.82625 -60.53646 16055 ft 266 kts 220°
2026-05-07 00:51 11.79225 -60.56626 16054 ft 266 kts 220°
2026-05-07 00:51 11.77821 -60.57855 16054 ft 266 kts 220°
2026-05-07 00:51 11.76416 -60.59085 16054 ft 266 kts 220°
2026-05-07 00:51 11.75009 -60.60317 16056 ft 266 kts 220°
2026-05-07 00:52 11.73621 -60.61536 16054 ft 266 kts 220°
2026-05-07 00:52 11.72214 -60.62769 16055 ft 267 kts 220°
2026-05-07 00:52 11.70801 -60.64003 16050 ft 267 kts 220°
2026-05-07 00:52 11.69394 -60.65236 16047 ft 267 kts 220°
2026-05-07 00:53 11.67984 -60.66469 16048 ft 267 kts 220°
2026-05-07 00:53 11.66575 -60.67701 16047 ft 267 kts 220°
2026-05-07 00:53 11.65167 -60.68933 16047 ft 266 kts 220°
2026-05-07 00:53 11.63758 -60.70169 16045 ft 267 kts 220°
2026-05-07 00:54 11.62353 -60.71399 16045 ft 267 kts 220°
2026-05-07 00:54 11.60943 -60.72630 16044 ft 267 kts 220°
2026-05-07 00:54 11.59533 -60.73862 16046 ft 267 kts 220°
2026-05-07 00:54 11.58127 -60.75094 16044 ft 267 kts 220°
2026-05-07 00:55 11.56718 -60.76326 16046 ft 267 kts 220°
2026-05-07 00:55 11.55310 -60.77555 16046 ft 266 kts 220°
2026-05-07 00:55 11.53901 -60.78788 16044 ft 267 kts 220°
2026-05-07 00:55 11.52491 -60.80018 16046 ft 267 kts 220°
2026-05-07 00:56 11.51099 -60.81237 16044 ft 267 kts 220°
2026-05-07 00:56 11.49690 -60.82468 16048 ft 267 kts 220°
2026-05-07 00:56 11.48281 -60.83697 16044 ft 267 kts 220°
2026-05-07 00:56 11.46871 -60.84930 16044 ft 267 kts 220°
2026-05-07 00:57 11.45462 -60.86160 16044 ft 267 kts 220°
2026-05-07 00:57 11.44051 -60.87390 16045 ft 267 kts 220°
2026-05-07 00:57 11.42641 -60.88625 16045 ft 267 kts 220°
2026-05-07 00:57 11.41230 -60.89857 16044 ft 267 kts 220°
2026-05-07 00:58 11.39820 -60.91086 16044 ft 267 kts 220°
2026-05-07 00:58 11.38412 -60.92315 16047 ft 266 kts 220°
2026-05-07 00:58 11.37004 -60.93544 16044 ft 266 kts 220°
2026-05-07 00:58 11.35611 -60.94759 16044 ft 267 kts 220°
2026-05-07 00:59 11.32788 -60.97222 16044 ft 267 kts 220°
2026-05-07 00:59 11.31378 -60.98451 16045 ft 267 kts 220°
2026-05-07 00:59 11.29963 -60.99684 16046 ft 267 kts 220°
2026-05-07 01:00 11.28548 -61.00919 16044 ft 267 kts 220°
2026-05-07 01:00 11.27133 -61.02153 16048 ft 267 kts 220°
2026-05-07 01:00 11.25720 -61.03384 16045 ft 267 kts 220°
2026-05-07 01:00 11.24306 -61.04616 16047 ft 267 kts 220°
2026-05-07 01:01 11.22896 -61.05846 16044 ft 267 kts 220°
2026-05-07 01:01 11.21501 -61.07063 16044 ft 267 kts 220°
2026-05-07 01:01 11.20087 -61.08294 16047 ft 267 kts 220°
2026-05-07 01:01 11.18655 -61.09541 16044 ft 267 kts 220°
2026-05-07 01:02 11.17242 -61.10772 16047 ft 267 kts 220°
2026-05-07 01:02 11.15827 -61.12005 16047 ft 267 kts 220°
2026-05-07 01:02 11.14428 -61.13222 16048 ft 268 kts 220°
2026-05-07 01:02 11.13014 -61.14454 16047 ft 268 kts 220°
2026-05-07 01:03 11.11597 -61.15689 16044 ft 268 kts 220°
2026-05-07 01:03 11.10180 -61.16923 16044 ft 268 kts 220°
2026-05-07 01:03 11.08759 -61.18157 16046 ft 268 kts 220°
2026-05-07 01:03 11.07344 -61.19390 16050 ft 268 kts 220°
2026-05-07 01:04 11.05920 -61.20628 15933 ft 272 kts 220°
2026-05-07 01:04 11.04446 -61.21909 15554 ft 285 kts 220°
2026-05-07 01:04 11.02908 -61.23250 15157 ft 296 kts 220°
2026-05-07 01:04 11.01322 -61.24629 14753 ft 304 kts 219°
2026-05-07 01:05 10.99731 -61.26023 14310 ft 299 kts 220°
2026-05-07 01:05 10.98317 -61.27524 13915 ft 291 kts 234°
2026-05-07 01:05 10.97220 -61.29226 13533 ft 291 kts 235°
2026-05-07 01:05 10.96083 -61.30933 13128 ft 292 kts 234°
2026-05-07 01:06 10.94937 -61.32641 12725 ft 293 kts 234°
2026-05-07 01:06 10.93788 -61.34355 12325 ft 293 kts 234°
2026-05-07 01:06 10.92639 -61.36073 11924 ft 294 kts 234°
2026-05-07 01:06 10.91464 -61.37778 11522 ft 294 kts 233°
2026-05-07 01:07 10.90277 -61.39468 11084 ft 295 kts 233°
2026-05-07 01:07 10.89118 -61.41120 10625 ft 277 kts 233°
2026-05-07 01:07 10.88001 -61.42713 10176 ft 276 kts 233°
2026-05-07 01:07 10.86920 -61.44265 9724 ft 258 kts 233°
2026-05-07 01:08 10.85924 -61.45709 9269 ft 242 kts 233°
2026-05-07 01:08 10.84989 -61.47081 8813 ft 230 kts 232°
2026-05-07 01:08 10.84099 -61.48401 8406 ft 224 kts 232°
2026-05-07 01:08 10.83172 -61.49753 8040 ft 241 kts 232°
2026-05-07 01:09 10.82195 -61.51172 7675 ft 253 kts 233°
2026-05-07 01:09 10.81205 -61.52692 7305 ft 263 kts 234°
2026-05-07 01:09 10.80206 -61.54274 6931 ft 269 kts 235°
2026-05-07 01:09 10.79194 -61.55894 6556 ft 273 kts 236°
2026-05-07 01:10 10.78172 -61.57532 6181 ft 275 kts 236°
2026-05-07 01:10 10.77148 -61.59176 5898 ft 273 kts 236°
2026-05-07 01:10 10.76137 -61.60804 5648 ft 271 kts 236°
2026-05-07 01:10 10.75103 -61.62353 5395 ft 264 kts 225°
2026-05-07 01:11 10.73583 -61.63302 5161 ft 256 kts 191°
2026-05-07 01:11 10.71856 -61.63259 4962 ft 247 kts 158°
2026-05-07 01:11 10.70495 -61.62270 4739 ft 242 kts 125°
2026-05-07 01:11 10.69942 -61.60692 4521 ft 238 kts 93°
2026-05-07 01:12 10.69922 -61.59020 4323 ft 235 kts 89°
2026-05-07 01:12 10.69924 -61.57363 4257 ft 232 kts 91°
2026-05-07 01:12 10.69861 -61.55743 4204 ft 227 kts 93°
2026-05-07 01:12 10.69580 -61.54197 4198 ft 221 kts 114°
2026-05-07 01:13 10.68497 -61.53104 4192 ft 226 kts 148°
2026-05-07 01:13 10.67022 -61.52544 4155 ft 226 kts 161°
2026-05-07 01:13 10.66003 -61.52330 4147 ft 226 kts 167°
2026-05-07 01:13 10.64435 -61.52183 4150 ft 226 kts 173°
2026-05-07 01:14 10.62853 -61.52166 3989 ft 232 kts 176°
2026-05-07 01:14 10.61243 -61.52055 3648 ft 225 kts 158°
2026-05-07 01:14 10.60095 -61.51182 3292 ft 199 kts 118°
2026-05-07 01:14 10.59567 -61.49434 2957 ft 197 kts 98°
2026-05-07 01:15 10.59423 -61.48051 2660 ft 192 kts 92°
2026-05-07 01:15 10.59412 -61.46758 2372 ft 172 kts 89°
2026-05-07 01:15 10.59428 -61.45982 2361 ft 151 kts 89°
2026-05-07 01:15 10.59449 -61.44969 2179 ft 145 kts 89°
2026-05-07 01:16 10.59469 -61.43910 1814 ft 151 kts 89°
2026-05-07 01:16 10.59489 -61.42870 1650 ft 144 kts 89°
2026-05-07 01:16 10.59506 -61.41917 1491 ft 124 kts 89°
2026-05-07 01:16 10.59522 -61.41088 1308 ft 113 kts 89°
2026-05-07 01:17 10.59536 -61.40297 1150 ft 114 kts 89°
2026-05-07 01:17 10.59544 -61.39471 1013 ft 119 kts 90°
2026-05-07 01:17 10.59548 -61.38621 869 ft 122 kts 90°
2026-05-07 01:17 10.59543 -61.37772 718 ft 117 kts 91°
2026-05-07 01:18 10.59525 -61.36966 559 ft 113 kts 90°
2026-05-07 01:18 10.59533 -61.36170 407 ft 112 kts 90°
2026-05-07 01:18 10.59536 -61.35378 276 ft 113 kts 89°
2026-05-07 01:18 10.59536 -61.34589 193 ft 107 kts 89°
2026-05-07 01:19 10.59538 -61.33890 188 ft 82 kts 91°
2026-05-07 01:19 10.59551 -61.33583 194 ft 27 kts 68°
2026-05-07 01:19 10.59634 -61.33465 202 ft 14 kts 33°
2026-05-07 01:19 10.59697 -61.33466 194 ft 8 kts 320°
2026-05-07 01:20 10.59709 -61.33524 204 ft 9 kts 270°
2026-05-07 01:20 10.59710 -61.33593 194 ft 10 kts 270°
2026-05-07 01:20 10.59710 -61.33671 204 ft 11 kts 269°
2026-05-07 01:20 10.59733 -61.33729 194 ft 8 kts 341°
2026-05-07 01:21 10.59790 -61.33734 194 ft 8 kts 359°
2026-05-07 01:21 10.59848 -61.33735 195 ft 9 kts 359°
2026-05-07 01:21 10.59901 -61.33719 195 ft 8 kts 42°
2026-05-07 01:21 10.59942 -61.33676 195 ft 9 kts 47°
2026-05-07 01:22 10.59984 -61.33654 195 ft 5 kts 349°
2026-05-07 01:22 10.59989 -61.33668 195 ft 1 kts 252°
2026-05-07 01:22 10.59987 -61.33673 195 ft 2 kts 247°
2026-05-07 01:22 10.59987 -61.33674 195 ft 0 kts 247°